Simultaneous Nadir Overpasses (SNOs) Predictions

Prediction of SNOs between NPP and TERRA Satellite Orbit:

Table of predicted SNOs for the next 14.0 days since TLE Epoch: 7/16/2022
Index Date (NPP) Time (NPP) Lat,Lon (NPP) SZA (NPP ) Date (TERRA) Time (TERRA) Lat,Lon (TERRA) SZA (TERRA ) Distance(km) Time Diff (sec)
1 07/16/2022 17:38:52 70.19, -88.48 48.91 07/16/2022 17:40:02 70.08, -87.46 48.76 40.43 70
2 07/16/2022 18:29:26 -69.68, 79.60 131.62 07/16/2022 18:29:37 -69.69, 79.63 131.62 0.81 11
3 07/16/2022 19:20:10 69.56,-112.90 48.26 07/16/2022 19:19:04 69.58,-112.87 48.29 2.63 66
4 07/19/2022 09:55:40 69.73, 27.98 48.90 07/19/2022 09:56:29 69.74, 27.95 48.90 1.14 49
5 07/19/2022 10:46:22 -69.65,-164.58 131.19 07/19/2022 10:45:59 -69.62,-164.58 131.21 3.01 23
6 07/19/2022 11:36:48 68.56, 4.24 47.69 07/19/2022 11:35:42 68.62, 1.78 47.85 99.79 66
7 07/22/2022 01:22:05 -70.45, -24.67 129.84 07/22/2022 01:23:14 -70.37, -22.93 130.00 65.80 69
8 07/22/2022 02:12:37 69.70, 143.78 49.38 07/22/2022 02:12:51 69.70, 143.79 49.38 0.32 14
9 07/22/2022 03:03:19 -69.61, -48.77 130.71 07/22/2022 03:02:21 -69.59, -48.73 130.73 2.79 58
10 07/24/2022 17:38:50 -69.79, 92.11 129.99 07/24/2022 17:39:46 -69.77, 92.13 130.02 2.28 56
11 07/24/2022 18:29:34 69.68,-100.42 49.90 07/24/2022 18:29:13 69.66,-100.39 49.88 2.62 21
12 07/24/2022 19:20:03 -68.89, 68.01 130.91 07/24/2022 19:18:54 -68.94, 66.31 130.80 68.17 69
13 07/27/2022 09:05:19 70.60, 39.29 51.45 07/27/2022 09:06:26 70.48, 41.39 51.25 78.69 67
14 07/27/2022 09:55:46 -69.71,-152.02 129.48 07/27/2022 09:56:08 -69.71,-152.06 129.49 1.86 22
15 07/27/2022 10:46:30 69.60, 15.46 50.41 07/27/2022 10:45:35 69.59, 15.42 50.41 1.94 55
16 07/30/2022 01:22:00 69.79, 156.31 51.22 07/30/2022 01:22:58 69.79, 156.31 51.21 0.21 58
17 07/30/2022 02:12:42 -69.69, -36.22 128.88 07/30/2022 02:12:28 -69.69, -36.20 128.88 0.96 14
18 07/30/2022 03:03:14 68.94, 132.15 50.36 07/30/2022 03:02:05 69.01, 130.55 50.48 64.08 69



Historial Predications of SNOs between NPP and TERRA
